• In Deutschland
  • Länderverzeichnis
  • Für 7 Tage
  • Wassertemperatur
  • Satellitenkarten
  • Wetterkarte
  • Widgets
  • user-avatar
    Anmelden

    Stündliche Wetter Bregenz

    Heute, 22 Januar, Montag

    Zeit Temperatur Niederschläge Wind Luftdruck Luftfeuchtigkeit
    00:00 -5°C° 1 mm 2 m/S 642 mmHg 94%
    01:00 -5°C° 0 mm 3 m/S 641 mmHg 93%
    02:00 -4°C° 3 mm 3 m/S 641 mmHg 94%
    03:00 -2°C° 3 mm 3 m/S 641 mmHg 95%
    04:00 -2°C° 3 mm 2 m/S 641 mmHg 96%
    05:00 -1°C° 3 mm 3 m/S 641 mmHg 97%
    06:00 -1°C° 3 mm 3 m/S 641 mmHg 97%
    07:00 0°C° 3 mm 3 m/S 641 mmHg 98%
    08:00 0°C° 1,8 mm 3 m/S 641 mmHg 98%
    09:00 0°C° 1,8 mm 3 m/S 641 mmHg 98%
    10:00 0°C° 1,8 mm 3 m/S 641 mmHg 98%
    11:00 0°C° 2,6 mm 3 m/S 640 mmHg 98%
    12:00 +2°C° 2,6 mm 2 m/S 640 mmHg 98%
    13:00 0°C° 0 mm 4 m/S 640 mmHg 97%
    14:00 +1°C° 1,7 mm 3 m/S 640 mmHg 97%
    15:00 +1°C° 1,7 mm 3 m/S 640 mmHg 96%
    16:00 +1°C° 1,7 mm 3 m/S 640 mmHg 96%
    17:00 +1°C° 1,8 mm 3 m/S 640 mmHg 96%
    18:00 0°C° 1,8 mm 4 m/S 641 mmHg 96%
    19:00 0°C° 1,8 mm 4 m/S 641 mmHg 97%
    20:00 +1°C° 2,1 mm 3 m/S 642 mmHg 97%
    21:00 +1°C° 2,1 mm 3 m/S 643 mmHg 97%
    22:00 +1°C° 2,1 mm 2 m/S 644 mmHg 98%
    23:00 +1°C° 0,5 mm 2 m/S 644 mmHg 97%

    Morgen, 23 Januar, Dienstag

    Zeit Temperatur Niederschläge Wind Luftdruck Luftfeuchtigkeit
    00:00 +1°C° 0,5 mm 2 m/S 645 mmHg 97%
    01:00 +1°C° 0,5 mm 2 m/S 646 mmHg 97%
    02:00 -1°C° 0,1 mm 2 m/S 646 mmHg 97%
    03:00 -1°C° 0,1 mm 2 m/S 647 mmHg 97%
    04:00 -2°C° 0,1 mm 2 m/S 647 mmHg 96%
    05:00 -2°C° 0,1 mm 2 m/S 647 mmHg 96%
    06:00 -3°C° 0,1 mm 2 m/S 648 mmHg 96%
    07:00 -3°C° 0,1 mm 2 m/S 648 mmHg 96%
    08:00 -1°C° 0 mm 1 m/S 648 mmHg 95%
    09:00 0°C° 0 mm 1 m/S 649 mmHg 95%
    10:00 0°C° 0 mm 1 m/S 649 mmHg 94%
    11:00 +1°C° 0 mm 1 m/S 650 mmHg 92%
    12:00 +2°C° 0 mm 1 m/S 650 mmHg 91%
    13:00 +2°C° 0 mm 1 m/S 650 mmHg 90%
    14:00 +2°C° 0 mm 1 m/S 650 mmHg 89%
    15:00 +2°C° 0 mm 1 m/S 650 mmHg 89%
    16:00 +2°C° 0 mm 1 m/S 650 mmHg 88%
    17:00 +1°C° 0 mm 1 m/S 650 mmHg 85%
    18:00 -3°C° 0 mm 2 m/S 650 mmHg 82%
    19:00 -4°C° 0 mm 2 m/S 650 mmHg 79%
    20:00 -3°C° 0 mm 2 m/S 650 mmHg 77%
    21:00 -3°C° 0 mm 2 m/S 650 mmHg 75%
    22:00 -3°C° 0 mm 2 m/S 651 mmHg 72%
    23:00 -3°C° 0 mm 2 m/S 651 mmHg 72%

    übermorgen, 24 Januar, Mittwoch

    Zeit Temperatur Niederschläge Wind Luftdruck Luftfeuchtigkeit
    00:00 -2°C° 0 mm 2 m/S 651 mmHg 71%
    01:00 -2°C° 0 mm 2 m/S 651 mmHg 71%
    02:00 -2°C° 0 mm 2 m/S 651 mmHg 71%
    03:00 -2°C° 0 mm 2 m/S 651 mmHg 70%
    04:00 -3°C° 0 mm 2 m/S 650 mmHg 70%
    05:00 -3°C° 0 mm 2 m/S 650 mmHg 71%
    06:00 -3°C° 0 mm 2 m/S 650 mmHg 73%
    07:00 -3°C° 0 mm 2 m/S 650 mmHg 74%
    08:00 -2°C° 0 mm 2 m/S 650 mmHg 76%
    09:00 -1°C° 0 mm 2 m/S 651 mmHg 77%
    10:00 +1°C° 0 mm 2 m/S 651 mmHg 79%
    11:00 +3°C° 0 mm 1 m/S 651 mmHg 81%
    12:00 +4°C° 0 mm 1 m/S 650 mmHg 84%
    13:00 +5°C° 0 mm 1 m/S 650 mmHg 86%
    14:00 +5°C° 0 mm 1 m/S 650 mmHg 86%
    15:00 +5°C° 0 mm 1 m/S 650 mmHg 85%
    16:00 +3°C° 0 mm 2 m/S 649 mmHg 85%
    17:00 +2°C° 0 mm 2 m/S 649 mmHg 82%
    18:00 +1°C° 0 mm 2 m/S 649 mmHg 80%
    19:00 -1°C° 0 mm 3 m/S 649 mmHg 78%
    20:00 -2°C° 0 mm 3 m/S 649 mmHg 76%
    21:00 -2°C° 0 mm 3 m/S 649 mmHg 75%
    22:00 -2°C° 0 mm 3 m/S 648 mmHg 73%
    23:00 -2°C° 0 mm 3 m/S 648 mmHg 72%

    25 Januar, Donnerstag

    Zeit Temperatur Niederschläge Wind Luftdruck Luftfeuchtigkeit
    00:00 -2°C° 0 mm 3 m/S 648 mmHg 71%
    01:00 -2°C° 0 mm 3 m/S 648 mmHg 71%
    02:00 -2°C° 0 mm 3 m/S 648 mmHg 71%
    03:00 -2°C° 0 mm 3 m/S 647 mmHg 71%
    04:00 -2°C° 0 mm 3 m/S 647 mmHg 71%
    05:00 -2°C° 0 mm 3 m/S 647 mmHg 71%
    06:00 -4°C° 0 mm 3 m/S 647 mmHg 72%
    07:00 -4°C° 0 mm 3 m/S 647 mmHg 72%
    08:00 -2°C° 0 mm 3 m/S 646 mmHg 73%
    09:00 -1°C° 0 mm 3 m/S 646 mmHg 74%
    10:00 0°C° 0 mm 3 m/S 646 mmHg 74%
    11:00 +1°C° 0 mm 3 m/S 646 mmHg 76%
    12:00 +1°C° 0 mm 3 m/S 646 mmHg 77%
    13:00 +3°C° 0 mm 2 m/S 646 mmHg 79%
    14:00 +3°C° 0 mm 2 m/S 645 mmHg 79%
    15:00 +3°C° 0 mm 2 m/S 645 mmHg 80%
    16:00 +3°C° 0 mm 2 m/S 644 mmHg 81%
    17:00 +2°C° 0 mm 2 m/S 644 mmHg 81%
    18:00 +1°C° 0 mm 2 m/S 644 mmHg 81%
    19:00 -1°C° 0 mm 2 m/S 644 mmHg 81%
    20:00 -1°C° 0 mm 2 m/S 644 mmHg 81%
    21:00 -1°C° 0 mm 2 m/S 644 mmHg 81%
    22:00 -1°C° 0 mm 2 m/S 644 mmHg 81%
    23:00 -1°C° 0 mm 2 m/S 643 mmHg 81%

    26 Januar, Freitag

    Zeit Temperatur Niederschläge Wind Luftdruck Luftfeuchtigkeit
    00:00 -1°C° 0 mm 2 m/S 643 mmHg 81%
    01:00 -2°C° 0 mm 2 m/S 643 mmHg 81%
    02:00 -2°C° 0 mm 2 m/S 642 mmHg 82%
    03:00 -2°C° 0 mm 2 m/S 642 mmHg 83%
    04:00 -2°C° 0 mm 2 m/S 642 mmHg 84%
    05:00 -2°C° 0 mm 2 m/S 642 mmHg 84%
    06:00 -2°C° 0 mm 2 m/S 641 mmHg 85%
    07:00 -2°C° 0 mm 2 m/S 641 mmHg 86%
    08:00 -2°C° 0 mm 2 m/S 642 mmHg 87%
    09:00 -1°C° 0 mm 2 m/S 642 mmHg 87%
    10:00 -1°C° 0 mm 2 m/S 642 mmHg 88%
    11:00 -1°C° 0,3 mm 2 m/S 642 mmHg 90%
    12:00 -1°C° 0,3 mm 2 m/S 643 mmHg 93%
    13:00 +1°C° 0,3 mm 2 m/S 643 mmHg 95%
    14:00 -1°C° 1,5 mm 2 m/S 643 mmHg 95%
    15:00 -1°C° 1,5 mm 2 m/S 643 mmHg 95%
    16:00 -2°C° 1,5 mm 2 m/S 643 mmHg 95%
    17:00 -2°C° 1,7 mm 2 m/S 644 mmHg 96%
    18:00 -3°C° 1,7 mm 2 m/S 644 mmHg 96%
    19:00 -1°C° 1,7 mm 1 m/S 644 mmHg 97%
    20:00 -1°C° 1,1 mm 1 m/S 645 mmHg 97%
    21:00 -2°C° 1,1 mm 1 m/S 645 mmHg 97%
    22:00 -2°C° 1,1 mm 1 m/S 646 mmHg 97%
    23:00 -2°C° 0,6 mm 1 m/S 646 mmHg 97%

    27 Januar, Samstag

    Zeit Temperatur Niederschläge Wind Luftdruck Luftfeuchtigkeit
    00:00 -2°C° 0,6 mm 1 m/S 646 mmHg 97%
    01:00 -2°C° 0,6 mm 1 m/S 647 mmHg 97%
    02:00 -3°C° 0,4 mm 1 m/S 647 mmHg 97%
    03:00 -3°C° 0,4 mm 1 m/S 647 mmHg 97%
    04:00 -3°C° 0,4 mm 1 m/S 647 mmHg 96%
    05:00 -3°C° 0,3 mm 1 m/S 647 mmHg 96%
    06:00 -3°C° 0,3 mm 1 m/S 647 mmHg 96%
    07:00 -3°C° 0,3 mm 1 m/S 648 mmHg 96%
    08:00 -3°C° 0,1 mm 1 m/S 648 mmHg 95%
    09:00 -2°C° 0,1 mm 1 m/S 649 mmHg 94%
    10:00 -2°C° 0,1 mm 1 m/S 649 mmHg 92%
    11:00 -1°C° 0 mm 1 m/S 649 mmHg 91%
    12:00 -1°C° 0 mm 1 m/S 650 mmHg 91%
    13:00 -2°C° 0 mm 2 m/S 650 mmHg 90%
    14:00 0°C° 0 mm 1 m/S 650 mmHg 90%
    15:00 0°C° 0 mm 1 m/S 650 mmHg 90%
    16:00 0°C° 0 mm 1 m/S 651 mmHg 90%
    17:00 -1°C° 0 mm 1 m/S 651 mmHg 92%
    18:00 -2°C° 0 mm 1 m/S 651 mmHg 93%
    19:00 -3°C° 0 mm 1 m/S 652 mmHg 95%
    20:00 -4°C° 0 mm 1 m/S 652 mmHg 92%
    21:00 -4°C° 0 mm 1 m/S 652 mmHg 90%
    22:00 -4°C° 0 mm 1 m/S 652 mmHg 88%
    23:00 -4°C° 0 mm 1 m/S 652 mmHg 86%
    Mehr zeigen